Home > Weather > Fürstenfeldbruck > Past weeks

Flag for Germany Past Weather in Fürstenfeldbruck, Bavaria, Germany — Yesterday and Last 2 Weeks

Now
68 °F

Partly sunny.


Feels Like: 68 °F
Forecast: 55 / 73 °F
Wind: 5 mph from Southwest

Location: Oberpfaffenhofen

Current Time: Aug 29, 2016 at 10:02:44 PM

Latest Report: Aug 29, 2016 at 6:50 PM


Visibility: N/A

Pressure: 30.15 "Hg (28.38 "Hg at 520m altitude)

Humidity: 83%

Dew Point: 63 °F

Location of FürstenfeldbruckLocation

Past Weather in Fürstenfeldbruck — Graph

°F

Fürstenfeldbruck Temperature Yesterday

Maximum temperature yesterday: 86 °F (at 4:50 PM)
Minimum temperature yesterday: 84 °F (at 5:20 PM)
Average temperature yesterday: 85 °F

High & Low Weather Summary for the Past Weeks

 TemperatureHumidityPressure
High86 °F (Aug 26, 3:50 PM)100% (Aug 16, 6:50 AM)30.42 "Hg (Aug 16, 6:50 AM)
Low50 °F (Aug 23, 6:50 AM)39% (Aug 25, 4:50 PM)29.83 "Hg (Aug 18, 2:50 PM)
Average69 °F69%30.12 "Hg
* Reported Aug 15 10:50 AM — Aug 29 6:50 PM, Fürstenfeldbruck, Weather by CustomWeather, © 2016

Note: Actual official high and low records may vary slightly from our data, if they occured in-between our weather recording intervals... More about our weather records

Advertising

Fürstenfeldbruck Weather History for the Previous 24 Hours

Scroll right to see more
 ConditionsComfort  
Time TempWeatherWind HumidityBarometerVisibility
6:50 PM
Mon, Aug 29
68 °FPartly sunny.5 mph83%30.15 "HgN/A
6:20 PM68 °FScattered clouds.5 mph83%30.15 "HgN/A
5:50 PM68 °FScattered clouds.7 mph83%30.15 "HgN/A
5:20 PM70 °FScattered clouds.6 mph78%30.15 "HgN/A
4:50 PM70 °FScattered clouds.7 mph78%30.12 "HgN/A
4:20 PM68 °FPartly sunny.9 mph78%30.15 "HgN/A
3:50 PM68 °FPartly sunny.9 mph83%30.15 "HgN/A
3:20 PM66 °FPartly sunny.7 mph88%30.15 "HgN/A
2:50 PM64 °FPartly sunny.6 mph94%30.15 "HgN/A
2:20 PM63 °FPartly sunny.7 mph94%30.18 "HgN/A
1:50 PM64 °FSprinkles. Broken clouds.6 mph94%30.18 "HgN/A
1:20 PM63 °FPassing clouds.6 mph100%30.18 "HgN/A
12:50 PM63 °FLight rain. Broken clouds.No wind100%30.18 "Hg6 mi
12:20 PM63 °FRain. Broken clouds.9 mph94%30.18 "Hg4 mi
11:50 AM63 °FRain. Broken clouds.7 mph100%30.18 "HgN/A
11:20 AM64 °FLight rain. Broken clouds.7 mph100%30.18 "HgN/A
10:50 AM64 °FLight rain. Broken clouds.8 mph94%30.15 "HgN/A
10:20 AM64 °FLight rain. Broken clouds.7 mph94%30.15 "HgN/A
9:50 AM64 °FLight rain. Broken clouds.3 mph94%30.12 "HgN/A
9:20 AM64 °FRain. Broken clouds.7 mph94%30.12 "HgN/A
8:50 AM66 °FLight rain. Broken clouds.7 mph83%30.12 "HgN/A
8:20 AM66 °FLight rain. Partly sunny.8 mph88%30.12 "HgN/A
7:50 AM64 °FSunny.7 mph94%30.12 "Hg10 mi
7:20 AM63 °FClear.3 mph100%30.12 "Hg10 mi
6:50 AM63 °FClear.2 mph100%30.12 "Hg10 mi
Weather by CustomWeather, © 2016

See weather overviewHow to use our weather pages